QPF
0.02 0.02 0.02 0.01 0.00 0.01 0.01 0.01 0.02 0.02 0.02 0.01 0.02 0.01 0.01 0.01 0.02 0.01 0.02 0.02 0.02 0.02 0.01 0.01 0.01 0.01 0.02 0.02 0.02 0.03 0.02 0.01 0.01 0.01 0.01 0.01 0.02 0.02 0.02 0.02 0.01 0.02 0.02 0.04
0.01 0.01 0.01 0.01 0.01 0.01 0.01 0.02 0.02 0.02 0.02 0.01 0.01 0.01 0.01 0.02 0.02 0.02 0.02 0.03 0.02 0.02 0.01 0.01 0.01 0.01 0.01 0.02 0.02 0.02 0.02 0.02 0.03 0.03 0.03 0.03 0.03 0.03 0.03 0.03 0.02 0.02 0.02 0.03
0.01 0.01 0.01 0.01 0.01 0.01 0.01 0.01 0.02 0.03 0.02 0.02 0.02 0.02 0.03 0.03 0.03 0.03 0.03 0.03 0.02 0.01 0.01 0.01 0.01 0.01 0.01 0.01 0.01 0.02 0.02 0.03 0.03 0.04 0.05 0.06 0.05 0.04 0.03 0.04 0.02 0.01 0.01 0.02
0.02 0.02 0.02 0.01 0.00 0.01 0.01 0.01 0.02 0.03 0.03 0.03 0.04 0.04 0.04 0.04 0.04 0.04 0.04 0.03 0.02 0.02 0.01 0.01 0.00 0.00 0.00 0.01 0.01 0.01 0.02 0.02 0.02 0.03 0.06 0.08 0.06 0.05 0.04 0.03 0.03 0.01 0.01 0.01
0.01 0.02 0.01 0.01 0.01 0.01 0.03 0.02 0.02 0.03 0.03 0.04 0.04 0.06 0.07 0.06 0.05 0.04 0.03 0.02 0.02 0.02 0.01 0.01 0.01 0.01 0.01 0.01 0.00 0.00 0.01 0.01 0.02 0.02 0.03 0.04 0.04 0.04 0.04 0.03 0.03 0.03 0.01 0.02
0.02 0.02 0.02 0.02 0.01 0.01 0.02 0.03 0.03 0.03 0.03 0.04 0.05 0.06 0.06 0.05 0.04 0.03 0.02 0.02 0.01 0.01 0.01 0.01 0.01 0.01 0.01 0.00 0.01 0.01 0.01 0.01 0.01 0.02 0.02 0.02 0.02 0.03 0.04 0.04 0.04 0.04 0.02 0.01
0.01 0.02 0.03 0.01 0.00 0.01 0.04 0.04 0.03 0.03 0.03 0.04 0.05 0.05 0.04 0.02 0.02 0.01 0.01 0.01 0.01 0.01 0.01 0.01 0.01 0.01 0.01 0.01 0.01 0.01 0.01 0.01 0.01 0.02 0.03 0.03 0.03 0.02 0.03 0.04 0.05 0.05 0.04 0.03
0.02 0.02 0.02 0.02 0.01 0.02 0.03 0.03 0.03 0.03 0.03 0.03 0.04 0.03 0.02 0.02 0.01 0.01 0.01 0.01 0.01 0.01 0.01 0.01 0.01 0.01 0.01 0.01 0.02 0.01 0.01 0.01 0.01 0.01 0.02 0.03 0.04 0.03 0.03 0.03 0.04 0.05 0.05 0.04
0.03 0.02 0.02 0.02 0.02 0.03 0.03 0.03 0.03 0.03 0.02 0.02 0.02 0.02 0.01 0.01 0.01 0.01 0.00 0.00 0.00 0.00 0.00 0.01 0.01 0.01 0.02 0.02 0.01 0.01 0.01 0.02 0.02 0.02 0.03 0.03 0.04 0.05 0.04 0.04 0.05 0.05 0.04 0.04
0.02 0.02 0.02 0.01 0.02 0.02 0.02 0.02 0.01 0.01 0.01 0.01 0.01 0.01 0.01 0.01 0.01 0.00 0.00 0.00 0.00 0.00 0.01 0.01 0.01 0.01 0.01 0.01 0.01 0.01 0.02 0.03 0.04 0.04 0.04 0.05 0.05 0.06 0.06 0.05 0.05 0.06 0.06 0.05
0.03 0.03 0.02 0.02 0.01 0.01 0.02 0.01 0.01 0.01 0.01 0.01 0.01 0.01 0.02 0.01 0.01 0.01 0.00 0.00 0.01 0.01 0.01 0.01 0.01 0.01 0.01 0.01 0.01 0.02 0.03 0.04 0.05 0.06 0.07 0.08 0.08 0.09 0.11 0.12 0.11 0.08 0.07 0.05
0.05 0.04 0.04 0.03 0.02 0.02 0.02 0.02 0.02 0.02 0.01 0.01 0.02 0.03 0.02 0.02 0.02 0.01 0.01 0.00 0.01 0.01 0.01 0.01 0.01 0.02 0.02 0.01 0.01 0.02 0.02 0.03 0.04 0.05 0.08 0.09 0.10 0.11 0.11 0.13 0.15 0.14 0.13 0.13
0.06 0.04 0.03 0.03 0.01 0.01 0.03 0.03 0.03 0.02 0.02 0.02 0.02 0.03 0.02 0.02 0.01 0.01 0.01 0.01 0.01 0.01 0.01 0.02 0.02 0.02 0.02 0.02 0.02 0.02 0.03 0.03 0.03 0.04 0.05 0.05 0.06 0.08 0.10 0.10 0.10 0.10 0.09 0.09
0.03 0.04 0.04 0.03 0.02 0.02 0.03 0.03 0.03 0.02 0.02 0.03 0.03 0.03 0.02 0.01 0.01 0.01 0.01 0.01 0.01 0.01 0.02 0.02 0.02 0.02 0.02 0.02 0.03 0.04 0.04 0.04 0.02 0.02 0.02 0.03 0.04 0.05 0.06 0.06 0.06 0.06 0.05 0.05
0.03 0.04 0.04 0.03 0.03 0.03 0.04 0.03 0.03 0.04 0.03 0.03 0.03 0.03 0.02 0.02 0.01 0.01 0.01 0.01 0.01 0.01 0.02 0.03 0.03 0.03 0.03 0.03 0.03 0.05 0.06 0.05 0.03 0.02 0.01 0.02 0.03 0.05 0.05 0.06 0.05 0.06 0.04 0.04
0.03 0.03 0.03 0.04 0.04 0.04 0.04 0.04 0.05 0.05 0.04 0.04 0.05 0.04 0.03 0.03 0.02 0.02 0.02 0.02 0.03 0.03 0.02 0.02 0.03 0.03 0.03 0.03 0.03 0.04 0.05 0.05 0.03 0.02 0.02 0.02 0.03 0.05 0.05 0.06 0.05 0.05 0.05 0.03
0.03 0.03 0.03 0.03 0.03 0.04 0.04 0.05 0.05 0.05 0.05 0.05 0.04 0.04 0.03 0.03 0.03 0.03 0.03 0.04 0.04 0.04 0.03 0.02 0.02 0.02 0.02 0.03 0.03 0.04 0.04 0.04 0.03 0.03 0.02 0.02 0.02 0.03 0.05 0.05 0.05 0.05 0.05 0.04
0.03 0.03 0.03 0.03 0.03 0.04 0.04 0.05 0.05 0.05 0.05 0.06 0.06 0.05 0.05 0.04 0.03 0.03 0.04 0.04 0.05 0.06 0.05 0.03 0.02 0.01 0.02 0.03 0.03 0.04 0.04 0.04 0.04 0.03 0.02 0.02 0.02 0.02 0.02 0.03 0.03 0.03 0.03 0.03
0.02 0.02 0.02 0.02 0.03 0.03 0.04 0.05 0.07 0.07 0.08 0.07 0.07 0.08 0.09 0.06 0.04 0.04 0.04 0.05 0.06 0.06 0.04 0.03 0.03 0.02 0.02 0.03 0.04 0.04 0.04 0.04 0.04 0.04 0.03 0.03 0.02 0.02 0.02 0.02 0.03 0.03 0.03 0.03
0.01 0.01 0.02 0.02 0.02 0.02 0.03 0.06 0.07 0.08 0.07 0.07 0.09 0.10 0.11 0.09 0.06 0.06 0.06 0.06 0.07 0.06 0.05 0.03 0.03 0.03 0.03 0.03 0.05 0.05 0.05 0.05 0.05 0.04 0.03 0.03 0.03 0.02 0.02 0.02 0.02 0.02 0.02 0.03
0.02 0.02 0.02 0.02 0.03 0.03 0.05 0.07 0.06 0.06 0.06 0.07 0.09 0.10 0.10 0.09 0.07 0.07 0.06 0.07 0.07 0.04 0.04 0.03 0.03 0.03 0.03 0.03 0.03 0.04 0.04 0.05 0.05 0.03 0.03 0.03 0.02 0.02 0.02 0.03 0.02 0.02 0.02 0.02
0.02 0.03 0.03 0.03 0.03 0.04 0.06 0.06 0.05 0.04 0.04 0.05 0.06 0.08 0.08 0.08 0.06 0.05 0.05 0.07 0.07 0.05 0.04 0.04 0.04 0.04 0.04 0.04 0.03 0.03 0.05 0.07 0.06 0.04 0.04 0.03 0.03 0.02 0.02 0.02 0.02 0.02 0.02 0.03
0.04 0.03 0.03 0.02 0.03 0.03 0.03 0.03 0.03 0.03 0.03 0.04 0.05 0.08 0.09 0.07 0.05 0.04 0.04 0.05 0.06 0.05 0.04 0.03 0.03 0.04 0.05 0.04 0.04 0.05 0.06 0.06 0.05 0.04 0.03 0.03 0.03 0.02 0.02 0.02 0.02 0.02 0.03 0.04
0.03 0.03 0.03 0.03 0.03 0.03 0.03 0.03 0.02 0.03 0.03 0.03 0.04 0.06 0.07 0.05 0.03 0.03 0.03 0.03 0.04 0.04 0.04 0.05 0.04 0.04 0.04 0.03 0.04 0.04 0.05 0.05 0.04 0.04 0.03 0.03 0.04 0.04 0.03 0.03 0.03 0.04 0.04 0.03
0.02 0.03 0.03 0.04 0.04 0.03 0.03 0.03 0.03 0.04 0.04 0.04 0.04 0.04 0.04 0.03 0.03 0.03 0.03 0.02 0.02 0.02 0.03 0.04 0.04 0.04 0.03 0.02 0.03 0.03 0.04 0.05 0.05 0.05 0.04 0.04 0.04 0.04 0.04 0.03 0.03 0.03 0.03 0.02
0.03 0.03 0.03 0.03 0.04 0.04 0.04 0.03 0.03 0.03 0.04 0.05 0.04 0.03 0.03 0.03 0.03 0.04 0.04 0.03 0.03 0.03 0.03 0.03 0.03 0.03 0.02 0.02 0.02 0.02 0.03 0.04 0.05 0.05 0.05 0.05 0.06 0.05 0.04 0.03 0.03 0.04 0.04 0.04
0.02 0.03 0.04 0.04 0.04 0.04 0.05 0.04 0.04 0.04 0.04 0.05 0.05 0.04 0.04 0.03 0.02 0.02 0.03 0.03 0.03 0.04 0.05 0.04 0.03 0.02 0.02 0.02 0.02 0.02 0.02 0.03 0.03 0.03 0.04 0.05 0.05 0.04 0.04 0.04 0.04 0.03 0.03 0.04
MSLP
1001.82 1001.61 1001.58 1001.70 1001.94 1002.25 1002.56 1002.83 1003.01 1003.11 1003.12 1003.07 1002.98 1002.90 1002.86 1002.85 1002.90 1002.98 1003.08 1003.19 1003.27 1003.34 1003.40 1003.46 1003.57 1003.74 1004.00 1004.39 1004.90 1005.51 1006.23 1007.01 1007.84 1008.68 1009.52 1010.33 1011.12 1011.88 1012.62 1013.32 1014.01 1014.66 1015.28 1015.85
1002.09 1001.84 1001.75 1001.82 1002.01 1002.27 1002.54 1002.80 1002.99 1003.13 1003.19 1003.21 1003.21 1003.22 1003.24 1003.30 1003.40 1003.51 1003.62 1003.70 1003.75 1003.76 1003.74 1003.71 1003.69 1003.74 1003.86 1004.11 1004.48 1004.98 1005.61 1006.33 1007.14 1007.99 1008.86 1009.74 1010.60 1011.45 1012.26 1013.04 1013.79 1014.50 1015.17 1015.78
1002.43 1002.19 1002.11 1002.18 1002.35 1002.59 1002.85 1003.09 1003.29 1003.44 1003.53 1003.59 1003.63 1003.68 1003.74 1003.84 1003.95 1004.07 1004.17 1004.24 1004.25 1004.21 1004.12 1004.00 1003.88 1003.80 1003.80 1003.91 1004.16 1004.55 1005.07 1005.73 1006.49 1007.32 1008.21 1009.13 1010.05 1010.96 1011.85 1012.70 1013.51 1014.27 1014.99 1015.66
1002.81 1002.63 1002.60 1002.70 1002.89 1003.13 1003.39 1003.62 1003.81 1003.95 1004.04 1004.10 1004.14 1004.19 1004.26 1004.36 1004.46 1004.57 1004.65 1004.69 1004.66 1004.57 1004.42 1004.23 1004.03 1003.86 1003.75 1003.76 1003.89 1004.18 1004.62 1005.20 1005.91 1006.72 1007.61 1008.54 1009.50 1010.45 1011.39 1012.29 1013.15 1013.97 1014.75 1015.47
1003.21 1003.11 1003.15 1003.29 1003.52 1003.77 1004.02 1004.24 1004.41 1004.52 1004.58 1004.61 1004.63 1004.66 1004.70 1004.76 1004.83 1004.90 1004.95 1004.94 1004.88 1004.74 1004.55 1004.31 1004.05 1003.82 1003.65 1003.59 1003.65 1003.87 1004.24 1004.77 1005.44 1006.23 1007.10 1008.04 1009.00 1009.98 1010.94 1011.88 1012.78 1013.64 1014.46 1015.23
1003.61 1003.59 1003.69 1003.88 1004.13 1004.38 1004.62 1004.81 1004.94 1005.01 1005.03 1005.01 1004.99 1004.97 1004.96 1004.97 1004.99 1005.01 1005.00 1004.95 1004.84 1004.66 1004.44 1004.17 1003.90 1003.65 1003.46 1003.38 1003.42 1003.61 1003.96 1004.47 1005.12 1005.88 1006.75 1007.68 1008.64 1009.62 1010.60 1011.55 1012.48 1013.36 1014.21 1015.02
1003.99 1004.04 1004.18 1004.40 1004.64 1004.88 1005.08 1005.22 1005.30 1005.32 1005.28 1005.22 1005.14 1005.06 1004.99 1004.94 1004.89 1004.84 1004.77 1004.66 1004.51 1004.31 1004.07 1003.80 1003.54 1003.32 1003.16 1003.11 1003.19 1003.41 1003.78 1004.30 1004.95 1005.73 1006.59 1007.51 1008.48 1009.46 1010.43 1011.39 1012.32 1013.22 1014.08 1014.91
1004.36 1004.44 1004.60 1004.81 1005.02 1005.21 1005.36 1005.44 1005.46 1005.42 1005.33 1005.20 1005.07 1004.93 1004.80 1004.67 1004.55 1004.43 1004.29 1004.12 1003.92 1003.69 1003.45 1003.21 1003.00 1002.84 1002.77 1002.80 1002.96 1003.25 1003.69 1004.26 1004.95 1005.75 1006.62 1007.56 1008.52 1009.50 1010.48 1011.44 1012.37 1013.27 1014.14 1014.97
1004.74 1004.82 1004.95 1005.12 1005.27 1005.39 1005.46 1005.47 1005.42 1005.32 1005.17 1004.99 1004.80 1004.60 1004.40 1004.21 1004.01 1003.80 1003.59 1003.36 1003.11 1002.87 1002.65 1002.45 1002.31 1002.25 1002.28 1002.43 1002.71 1003.12 1003.65 1004.30 1005.06 1005.90 1006.80 1007.76 1008.74 1009.73 1010.71 1011.68 1012.62 1013.53 1014.40 1015.23
1005.13 1005.18 1005.27 1005.36 1005.43 1005.46 1005.45 1005.37 1005.25 1005.08 1004.88 1004.65 1004.40 1004.14 1003.88 1003.60 1003.32 1003.03 1002.73 1002.44 1002.15 1001.90 1001.69 1001.55 1001.50 1001.54 1001.71 1002.00 1002.42 1002.95 1003.60 1004.35 1005.18 1006.07 1007.02 1008.01 1009.02 1010.03 1011.04 1012.04 1013.01 1013.94 1014.82 1015.65
1005.54 1005.55 1005.57 1005.57 1005.54 1005.47 1005.36 1005.20 1005.00 1004.77 1004.51 1004.23 1003.93 1003.60 1003.26 1002.91 1002.54 1002.15 1001.77 1001.41 1001.09 1000.82 1000.63 1000.55 1000.58 1000.75 1001.05 1001.48 1002.03 1002.70 1003.46 1004.30 1005.20 1006.16 1007.15 1008.18 1009.23 1010.28 1011.34 1012.38 1013.40 1014.38 1015.29 1016.14
1005.97 1005.93 1005.87 1005.77 1005.64 1005.47 1005.26 1005.02 1004.74 1004.44 1004.12 1003.78 1003.42 1003.02 1002.60 1002.15 1001.68 1001.20 1000.73 1000.30 999.93 999.65 999.48 999.46 999.58 999.85 1000.27 1000.84 1001.52 1002.29 1003.15 1004.07 1005.04 1006.04 1007.08 1008.15 1009.24 1010.35 1011.46 1012.57 1013.66 1014.70 1015.67 1016.55
1006.38 1006.28 1006.15 1005.96 1005.73 1005.47 1005.16 1004.83 1004.49 1004.12 1003.73 1003.32 1002.88 1002.40 1001.88 1001.33 1000.75 1000.17 999.61 999.10 998.69 998.40 998.25 998.28 998.48 998.85 999.39 1000.06 1000.85 1001.72 1002.65 1003.63 1004.64 1005.68 1006.75 1007.85 1008.98 1010.14 1011.32 1012.50 1013.67 1014.79 1015.83 1016.77
1006.72 1006.57 1006.37 1006.10 1005.79 1005.43 1005.05 1004.64 1004.22 1003.78 1003.33 1002.84 1002.31 1001.73 1001.10 1000.43 999.74 999.05 998.39 997.82 997.36 997.06 996.94 997.02 997.30 997.77 998.40 999.17 1000.05 1000.99 1001.98 1003.00 1004.04 1005.09 1006.18 1007.29 1008.45 1009.65 1010.89 1012.14 1013.39 1014.59 1015.71 1016.71
1006.93 1006.74 1006.47 1006.14 1005.75 1005.33 1004.87 1004.40 1003.91 1003.41 1002.87 1002.29 1001.66 1000.98 1000.23 999.44 998.63 997.83 997.09 996.45 995.96 995.65 995.57 995.70 996.06 996.62 997.35 998.22 999.17 1000.18 1001.22 1002.27 1003.32 1004.38 1005.46 1006.58 1007.75 1008.97 1010.25 1011.55 1012.85 1014.12 1015.31 1016.37
1006.97 1006.73 1006.42 1006.03 1005.59 1005.11 1004.61 1004.08 1003.53 1002.96 1002.34 1001.68 1000.95 1000.14 999.28 998.37 997.44 996.54 995.72 995.03 994.52 994.22 994.18 994.38 994.82 995.47 996.30 997.26 998.30 999.38 1000.46 1001.54 1002.60 1003.66 1004.73 1005.84 1007.00 1008.22 1009.50 1010.82 1012.16 1013.46 1014.69 1015.80
1006.81 1006.54 1006.19 1005.76 1005.29 1004.77 1004.23 1003.66 1003.06 1002.43 1001.75 1001.00 1000.18 999.27 998.29 997.27 996.24 995.26 994.37 993.63 993.11 992.84 992.84 993.12 993.65 994.41 995.34 996.40 997.52 998.67 999.81 1000.92 1002.00 1003.06 1004.12 1005.21 1006.34 1007.54 1008.80 1010.10 1011.42 1012.72 1013.96 1015.09
1006.49 1006.18 1005.80 1005.35 1004.85 1004.32 1003.76 1003.17 1002.54 1001.87 1001.13 1000.32 999.41 998.42 997.35 996.24 995.12 994.07 993.13 992.37 991.86 991.61 991.67 992.01 992.64 993.49 994.53 995.68 996.90 998.13 999.33 1000.48 1001.59 1002.66 1003.71 1004.77 1005.87 1007.02 1008.23 1009.49 1010.76 1012.03 1013.24 1014.36
1006.05 1005.72 1005.32 1004.86 1004.36 1003.82 1003.26 1002.66 1002.03 1001.34 1000.57 999.71 998.75 997.69 996.56 995.38 994.21 993.12 992.15 991.38 990.87 990.66 990.76 991.17 991.87 992.80 993.93 995.17 996.47 997.77 999.03 1000.24 1001.37 1002.46 1003.50 1004.55 1005.61 1006.70 1007.85 1009.03 1010.24 1011.44 1012.60 1013.69
1005.61 1005.25 1004.84 1004.38 1003.89 1003.36 1002.81 1002.23 1001.60 1000.91 1000.14 999.26 998.28 997.19 996.03 994.83 993.64 992.52 991.54 990.78 990.28 990.09 990.22 990.67 991.41 992.40 993.57 994.87 996.22 997.58 998.88 1000.13 1001.29 1002.39 1003.43 1004.46 1005.48 1006.53 1007.61 1008.72 1009.85 1010.98 1012.09 1013.13
1005.25 1004.88 1004.47 1004.01 1003.53 1003.03 1002.51 1001.95 1001.35 1000.67 999.92 999.06 998.08 997.01 995.85 994.66 993.48 992.37 991.40 990.65 990.16 989.98 990.12 990.57 991.31 992.30 993.48 994.78 996.14 997.50 998.82 1000.07 1001.24 1002.35 1003.39 1004.40 1005.39 1006.40 1007.43 1008.48 1009.55 1010.62 1011.68 1012.69
1005.05 1004.68 1004.27 1003.83 1003.37 1002.89 1002.39 1001.86 1001.29 1000.66 999.94 999.12 998.19 997.16 996.05 994.90 993.77 992.70 991.77 991.04 990.56 990.37 990.49 990.91 991.60 992.53 993.65 994.89 996.20 997.51 998.79 1000.01 1001.16 1002.25 1003.27 1004.26 1005.24 1006.22 1007.22 1008.23 1009.27 1010.31 1011.34 1012.34
1005.04 1004.68 1004.28 1003.85 1003.40 1002.95 1002.47 1001.98 1001.45 1000.86 1000.19 999.44 998.58 997.63 996.61 995.55 994.49 993.50 992.63 991.94 991.47 991.27 991.34 991.69 992.29 993.12 994.11 995.23 996.41 997.61 998.80 999.94 1001.02 1002.06 1003.05 1004.02 1004.97 1005.94 1006.92 1007.93 1008.96 1010.00 1011.04 1012.06
1005.20 1004.85 1004.46 1004.04 1003.61 1003.17 1002.72 1002.26 1001.77 1001.23 1000.63 999.96 999.20 998.36 997.45 996.51 995.58 994.69 993.91 993.27 992.83 992.62 992.64 992.90 993.38 994.05 994.88 995.82 996.83 997.86 998.89 999.90 1000.88 1001.83 1002.76 1003.69 1004.62 1005.58 1006.57 1007.59 1008.64 1009.71 1010.78 1011.85
1005.45 1005.12 1004.74 1004.34 1003.92 1003.50 1003.07 1002.63 1002.18 1001.70 1001.18 1000.59 999.95 999.24 998.48 997.69 996.90 996.15 995.49 994.94 994.55 994.33 994.31 994.48 994.83 995.34 995.97 996.70 997.50 998.32 999.16 1000.00 1000.84 1001.67 1002.52 1003.39 1004.29 1005.24 1006.24 1007.28 1008.36 1009.47 1010.60 1011.72
1005.70 1005.39 1005.04 1004.65 1004.25 1003.84 1003.43 1003.02 1002.61 1002.19 1001.74 1001.26 1000.73 1000.17 999.57 998.95 998.34 997.75 997.23 996.79 996.48 996.29 996.25 996.34 996.58 996.92 997.37 997.89 998.47 999.07 999.71 1000.36 1001.03 1001.73 1002.48 1003.27 1004.13 1005.06 1006.05 1007.11 1008.23 1009.38 1010.56 1011.73
1005.86 1005.58 1005.26 1004.89 1004.51 1004.12 1003.74 1003.36 1002.99 1002.62 1002.25 1001.87 1001.47 1001.05 1000.62 1000.18 999.75 999.34 998.98 998.68 998.46 998.33 998.30 998.36 998.50 998.73 999.01 999.35 999.73 1000.14 1000.58 1001.05 1001.56 1002.13 1002.76 1003.47 1004.27 1005.16 1006.14 1007.20 1008.33 1009.50 1010.71 1011.92
Thickness
5698 5703 5705 5703 5705 5708 5706 5708 5707 5711 5711 5708 5707 5706 5706 5704 5701 5699 5698 5698 5697 5695 5695 5696 5696 5696 5697 5697 5697 5697 5696 5695 5695 5694 5692 5691 5689 5687 5686 5685 5685 5683 5682 5681
5683 5692 5693 5690 5694 5697 5696 5698 5699 5700 5698 5703 5702 5699 5696 5695 5692 5689 5689 5688 5688 5687 5687 5687 5687 5687 5688 5688 5689 5689 5689 5689 5688 5687 5686 5685 5684 5682 5680 5679 5679 5678 5677 5676
5671 5681 5679 5673 5682 5685 5686 5690 5689 5685 5687 5691 5687 5685 5685 5685 5683 5681 5680 5680 5679 5678 5679 5678 5679 5680 5680 5681 5682 5682 5682 5682 5682 5681 5680 5679 5678 5677 5675 5674 5673 5672 5672 5671
5663 5662 5651 5667 5681 5681 5677 5675 5678 5677 5678 5678 5676 5676 5676 5676 5674 5672 5672 5672 5671 5671 5671 5672 5672 5673 5673 5674 5675 5675 5676 5676 5676 5675 5673 5673 5672 5671 5670 5668 5667 5666 5666 5665
5651 5652 5653 5657 5665 5668 5663 5660 5667 5667 5668 5669 5669 5669 5668 5667 5666 5664 5664 5664 5664 5664 5665 5665 5665 5665 5666 5666 5667 5668 5669 5669 5669 5669 5668 5667 5666 5665 5664 5662 5661 5660 5660 5659
5641 5639 5639 5647 5658 5663 5659 5648 5657 5658 5656 5657 5657 5656 5658 5657 5657 5656 5656 5657 5657 5658 5658 5658 5658 5658 5657 5659 5660 5660 5661 5662 5662 5662 5661 5661 5660 5659 5658 5656 5655 5654 5653 5653
5633 5632 5636 5644 5650 5651 5637 5639 5646 5648 5647 5647 5645 5646 5648 5648 5648 5648 5648 5649 5650 5650 5650 5650 5650 5650 5650 5651 5652 5653 5654 5654 5654 5654 5654 5655 5654 5653 5651 5650 5649 5648 5647 5646
5625 5624 5624 5635 5636 5632 5630 5636 5637 5638 5638 5637 5637 5638 5639 5639 5639 5640 5641 5642 5642 5642 5643 5644 5643 5643 5643 5643 5645 5645 5646 5645 5646 5646 5647 5649 5647 5646 5645 5643 5642 5641 5640 5639
5616 5616 5622 5626 5625 5625 5626 5625 5626 5628 5629 5630 5630 5630 5632 5632 5633 5634 5635 5634 5635 5635 5636 5636 5637 5636 5636 5637 5637 5638 5638 5638 5639 5639 5640 5640 5640 5640 5639 5637 5637 5637 5636 5635
5605 5609 5613 5616 5618 5618 5618 5617 5618 5620 5621 5622 5622 5624 5625 5626 5627 5627 5627 5627 5628 5628 5629 5629 5630 5630 5630 5631 5631 5631 5631 5631 5632 5633 5633 5632 5632 5633 5633 5633 5632 5631 5630 5630
5593 5596 5599 5602 5604 5606 5607 5609 5610 5612 5614 5615 5615 5616 5618 5619 5620 5620 5621 5621 5621 5621 5622 5623 5624 5624 5625 5625 5625 5624 5624 5625 5626 5627 5626 5625 5625 5624 5625 5625 5623 5622 5624 5624
5582 5586 5586 5589 5594 5597 5597 5599 5601 5602 5605 5608 5610 5611 5612 5612 5613 5614 5615 5616 5616 5616 5617 5618 5618 5618 5619 5619 5618 5618 5618 5619 5620 5621 5620 5620 5620 5618 5614 5615 5613 5610 5610 5611
5576 5579 5581 5583 5586 5588 5589 5592 5595 5597 5599 5601 5603 5605 5606 5607 5608 5609 5609 5610 5611 5611 5612 5612 5612 5613 5614 5614 5613 5613 5613 5613 5614 5615 5615 5614 5615 5614 5611 5607 5604 5602 5601 5601
5571 5571 5572 5575 5577 5581 5584 5587 5590 5592 5594 5595 5597 5598 5599 5600 5602 5603 5604 5606 5607 5607 5607 5607 5607 5608 5608 5608 5608 5608 5609 5607 5607 5608 5609 5609 5609 5608 5607 5605 5603 5601 5596 5593
5565 5566 5567 5569 5571 5575 5578 5582 5584 5586 5588 5590 5591 5593 5593 5594 5595 5597 5598 5599 5600 5600 5600 5600 5600 5601 5602 5602 5602 5602 5603 5603 5602 5602 5603 5603 5603 5602 5601 5600 5598 5596 5594 5589
5559 5561 5562 5563 5566 5569 5572 5574 5576 5579 5582 5583 5585 5586 5587 5589 5590 5592 5592 5592 5592 5593 5593 5593 5594 5595 5595 5595 5595 5596 5596 5593 5593 5595 5597 5597 5597 5596 5594 5593 5591 5590 5589 5588
5551 5554 5556 5558 5560 5563 5566 5568 5570 5572 5574 5576 5578 5580 5581 5583 5584 5585 5585 5586 5586 5586 5586 5586 5586 5587 5588 5588 5588 5590 5590 5588 5585 5588 5590 5590 5589 5588 5587 5586 5585 5584 5583 5581
5547 5549 5551 5553 5555 5558 5561 5564 5566 5567 5569 5571 5573 5574 5574 5575 5576 5577 5578 5578 5578 5579 5579 5579 5579 5580 5580 5581 5581 5583 5583 5583 5582 5582 5581 5580 5580 5580 5579 5579 5578 5577 5577 5575
5544 5545 5547 5548 5551 5554 5556 5559 5560 5562 5563 5566 5568 5568 5569 5570 5570 5570 5571 5571 5571 5571 5571 5571 5569 5572 5573 5574 5572 5574 5575 5575 5575 5574 5574 5570 5571 5572 5571 5572 5571 5571 5570 5568
5540 5541 5542 5544 5547 5549 5552 5554 5555 5556 5558 5560 5562 5563 5563 5564 5564 5564 5564 5564 5565 5565 5564 5564 5565 5566 5567 5567 5564 5568 5568 5568 5568 5567 5566 5565 5564 5564 5564 5564 5564 5563 5561 5560
5536 5537 5538 5539 5541 5543 5546 5548 5550 5551 5552 5554 5555 5556 5557 5557 5559 5558 5558 5559 5558 5558 5559 5557 5559 5561 5561 5559 5557 5563 5563 5562 5561 5560 5560 5558 5557 5557 5557 5557 5556 5555 5553 5552
5531 5531 5532 5534 5536 5537 5539 5541 5544 5545 5547 5548 5550 5551 5551 5552 5553 5552 5552 5553 5553 5551 5553 5555 5555 5553 5553 5552 5556 5557 5556 5555 5554 5553 5552 5551 5549 5549 5549 5548 5547 5546 5545 5544
5524 5525 5526 5527 5529 5531 5533 5536 5538 5540 5542 5543 5544 5546 5547 5547 5548 5548 5548 5548 5548 5545 5548 5549 5546 5543 5543 5548 5551 5551 5549 5548 5547 5545 5543 5542 5541 5540 5539 5539 5539 5538 5537 5536
5520 5520 5521 5522 5524 5526 5527 5529 5532 5534 5536 5538 5540 5541 5541 5542 5543 5543 5542 5540 5539 5539 5542 5539 5536 5536 5536 5543 5544 5543 5541 5540 5538 5537 5535 5533 5532 5531 5530 5530 5530 5529 5528 5527
5516 5516 5518 5518 5519 5522 5523 5524 5527 5529 5532 5533 5534 5535 5536 5536 5536 5536 5535 5535 5532 5533 5535 5532 5529 5529 5532 5535 5535 5534 5533 5531 5529 5527 5525 5523 5522 5521 5521 5520 5520 5520 5519 5519
5513 5513 5514 5513 5515 5517 5520 5522 5524 5526 5527 5527 5527 5529 5530 5530 5530 5530 5530 5529 5528 5526 5527 5528 5527 5525 5527 5527 5526 5524 5523 5521 5520 5518 5516 5514 5513 5512 5511 5510 5510 5510 5511 5510
5511 5511 5511 5512 5513 5514 5516 5518 5519 5520 5521 5522 5522 5523 5524 5524 5524 5524 5523 5523 5521 5520 5520 5520 5520 5520 5519 5518 5517 5515 5513 5511 5510 5508 5507 5505 5503 5503 5502 5500 5500 5500 5500 5499